Вернуться в каталог

CZ-3C DEB

LostGTO
NORAD 42466·DEBRIS·🇨🇳 China

Запущен Oct 31, 2010 с Xichang Satellite Launch Center

Loading…

TLE

УстаревшееSource: Space-Track

Эпоха: May 1, 2019, 19:34 UTC

1 42466U 10057BF  19121.81527925 -.00000368  00000-0 -18714-2 0  9990
2 42466  20.6919 305.5417 7200207 285.3388  10.8191  2.18727697 30542

Отслеживайте CZ-3C DEB в реальном времени с AllMySat

Download on the App Store